Starlink 35978

operational
NORAD ID: 66601 Int'l Des: 2025-270 Owner: SPXS Country: US Constellation: starlink
LEOCIRCULAR

关于 Starlink 35978

正在加载描述...

实时位置

正在加载3D地球...

即将过境

高度历史

Altitude vs Time

uPlot chart will show altitude changes over time

两行轨道根数

1 66601U 25270P 26063.43959046 .00053896 00000-0 19461-2 0 9996
2 66601 43.0241 85.7974 0010487 305.1253 54.8616 15.27663728 16749
Epoch: Mar 4, 2026 • Age: 16 hours

当前状态

高度 492.0 km
速度 7.62 km/s
星下点 42.94°N, 144.46°E
发射日期 Nov 22, 2025
运行时间 0.2 years
类型 internet

技术详情

分类 Payload
质量 575.00 kg
干质量 530.00 kg
总质量 575.00 kg
长度 0.30 m
直径 4.10 m
跨度 29.00 m
形状 Box + pan
制造商 SPXS
平台类型 Starlink V2MO
阶段状态 In Orbit
所有者/国家 SPXS/US

大型星座

Loading constellations...